Regional Weather Roundup
Issued by NWS Cleveland, OH

Home | Current Version | Previous Version | Graphics & Text | Print | Product List | Glossary On
Versions: 1 2 3 4 5 6 7 8 9 10 11 12 13 14 15 16 17 18 19 20 21 22 23 24 25 26 27 28 29 30 31 32 33 34 35 36 37 38 39 40 41 42 43 44 45 46 47 48 49 50
000
ASUS41 KCLE 220400
RWRCLE
OHIO REGIONAL WEATHER ROUNDUP
NATIONAL WEATHER SERVICE WILMINGTON, OH
1100 PM EST TUE NOV 21 2017

NOTE: "FAIR" INDICATES FEW OR NO CLOUDS BELOW 12,000 FEET WITH NO
SIGNIFICANT WEATHER AND/OR OBSTRUCTIONS TO VISIBILITY.

OHZ001>008-015>018-024>027-034-035-043-044-220500-
   NORTHWEST OHIO

CITY           SKY/WX    TMP DP  RH WIND       PRES   REMARKS
DEFIANCE       CLOUDY    35  27  72 NW9       30.05R WCI  28
FINDLAY        CLOUDY    38  31  76 NW9       30.02R
TOLEDO EXPRESS CLOUDY    37  30  75 W10       30.02R
TOLEDO EXEC    CLOUDY    38  28  67 W13       30.03R
LIMA           CLOUDY    36  33  89 NW15      30.03R
$$

OHZ009>014-019>023-028>033-038-089-220500-
   NORTHEAST OHIO

CITY           SKY/WX    TMP DP  RH WIND       PRES   REMARKS
CLE-HOPKINS    LGT RAIN  39  36  89 W13G23    30.01R
CLE-LAKEFRONT  LGT RAIN  41  36  82 NW16      29.97R
CUY CO. ARPT   DRIZZLE   41  39  93 NW12      29.97R
LORAIN-ELYRIA  LGT RAIN  37  31  78 W12       30.00R
ASHTABULA      LGT RAIN  41  38  89 NW10      29.95R
AKRON-CANTON   CLOUDY    46  34  62 W12       29.95R
WOOSTER        NOT AVBL
MANSFIELD      MIX PCPN  36  34  92 W12G17    29.99R
YOUNGSTOWN     CLOUDY    46  34  62 NW7       29.93R
$$

OHZ042-051>053-060>062-070>072-077>081-220500-
  SOUTHWEST OHIO

CITY           SKY/WX    TMP DP  RH WIND       PRES   REMARKS
CINC-COVINGTON LGT RAIN  42  37  82 NW20G30   30.06R
CINC-LUNKEN    CLOUDY    44  36  73 N15G23    30.08R
HAMILTON       RAIN      37  35  92 NW20      30.10R
DAYTON         NOT AVBL
WRIGHT-PAT AFB LGT RAIN  36  34  92 W10       30.05R
DAYTON GENERAL LGT SNOW  34  31  88 NW9       30.06R FOG     WCI  27
WILMINGTON     CLOUDY    43  36  76 NW14      30.02R
$$

OHZ036-037-039>041-045>050-054>059-063>069-073>076-082>088-220500-
  CENTRAL AND SOUTHEAST OHIO

CITY           SKY/WX    TMP DP  RH WIND       PRES   REMARKS
COLUMBUS       CLOUDY    45  36  70 NW16      30.00R
OSU AIRPORT    LGT RAIN  42  37  82 NW15      30.01R
BOLTON FIELD   CLOUDY    43  36  77 NW10      30.02R
RICKENBACK AFB NOT AVBL
NEWARK         CLOUDY    47  35  63 NW15      29.98R
MARION         LGT SNOW  35  32  88 NW15G23   30.02R FOG     WCI  25
LANCASTER      CLOUDY    46  36  68 NW8       30.00R
ZANESVILLE     FAIR      48  31  51 W7        29.97R
NEW PHILLY     CLOUDY    48  33  56 NW7       29.95S
$$



USA.gov is the U.S. government's official web portal to all federal, state and local government web resources and services.